Stündliche Wetter Judyty

Heute, 7 März, Sonntag

Zeit Temperatur Niederschläge Wind Luftdruck Luftfeuchtigkeit
00:00 -1°C° 0 mm 7 m/S 761 mmHg 82%
01:00 -1°C° 0 mm 7 m/S 760 mmHg 81%
02:00 -2°C° 0 mm 7 m/S 759 mmHg 85%
03:00 -2°C° 0 mm 8 m/S 759 mmHg 88%
04:00 -2°C° 0 mm 8 m/S 758 mmHg 92%
05:00 -2°C° 0.2 mm 8 m/S 758 mmHg 93%
06:00 -2°C° 0.2 mm 8 m/S 757 mmHg 94%
07:00 -2°C° 0 mm 8 m/S 757 mmHg 95%
08:00 -2°C° 0.2 mm 8 m/S 757 mmHg 93%
09:00 -1°C° 0.2 mm 8 m/S 757 mmHg 92%
10:00 -1°C° 0.2 mm 9 m/S 756 mmHg 91%
11:00 -1°C° 0.3 mm 8 m/S 756 mmHg 92%
12:00 -1°C° 0.3 mm 8 m/S 756 mmHg 93%
13:00 -1°C° 0 mm 8 m/S 756 mmHg 94%
14:00 -1°C° 0.8 mm 7 m/S 756 mmHg 94%
15:00 -1°C° 0.8 mm 5 m/S 755 mmHg 93%
16:00 -1°C° 0.8 mm 4 m/S 755 mmHg 93%
17:00 -2°C° 0.1 mm 4 m/S 756 mmHg 92%
18:00 -1°C° 0.1 mm 3 m/S 756 mmHg 90%
19:00 -2°C° 0.1 mm 3 m/S 756 mmHg 89%
20:00 -2°C° 0.1 mm 3 m/S 757 mmHg 87%
21:00 -4°C° 0.1 mm 3 m/S 757 mmHg 84%
22:00 -4°C° 0.1 mm 3 m/S 757 mmHg 82%
23:00 -4°C° 0 mm 3 m/S 757 mmHg 80%

Morgen, 8 März, Montag

Zeit Temperatur Niederschläge Wind Luftdruck Luftfeuchtigkeit
00:00 -4°C° 0 mm 3 m/S 758 mmHg 78%
01:00 -4°C° 0 mm 3 m/S 758 mmHg 76%
02:00 -4°C° 0 mm 3 m/S 758 mmHg 77%
03:00 -4°C° 0 mm 3 m/S 758 mmHg 77%
04:00 -4°C° 0 mm 3 m/S 758 mmHg 78%
05:00 -4°C° 0 mm 3 m/S 759 mmHg 78%
06:00 -3°C° 0 mm 4 m/S 759 mmHg 78%
07:00 -3°C° 0 mm 4 m/S 760 mmHg 78%
08:00 -2°C° 0.1 mm 4 m/S 760 mmHg 74%
09:00 -1°C° 0.1 mm 5 m/S 760 mmHg 70%
10:00 -1°C° 0.1 mm 5 m/S 761 mmHg 66%
11:00 0°C° 0.1 mm 5 m/S 761 mmHg 65%
12:00 -1°C° 0.1 mm 6 m/S 761 mmHg 64%
13:00 -1°C° 0.1 mm 6 m/S 762 mmHg 62%
14:00 0°C° 0.1 mm 5 m/S 762 mmHg 64%
15:00 -1°C° 0.1 mm 5 m/S 762 mmHg 65%
16:00 -1°C° 0.1 mm 5 m/S 762 mmHg 67%
17:00 -2°C° 0 mm 4 m/S 762 mmHg 72%
18:00 -2°C° 0 mm 3 m/S 763 mmHg 77%
19:00 -3°C° 0 mm 2 m/S 763 mmHg 83%
20:00 -3°C° 0 mm 2 m/S 763 mmHg 83%
21:00 -1°C° 0 mm 1 m/S 764 mmHg 84%
22:00 -1°C° 0 mm 1 m/S 764 mmHg 84%
23:00 -1°C° 0 mm 1 m/S 764 mmHg 85%

übermorgen, 9 März, Dienstag

Zeit Temperatur Niederschläge Wind Luftdruck Luftfeuchtigkeit
00:00 -1°C° 0 mm 1 m/S 764 mmHg 85%
01:00 -1°C° 0 mm 1 m/S 764 mmHg 86%
02:00 -1°C° 0 mm 1 m/S 764 mmHg 87%
03:00 -1°C° 0 mm 1 m/S 764 mmHg 88%
04:00 -1°C° 0 mm 1 m/S 763 mmHg 89%
05:00 -1°C° 0 mm 1 m/S 763 mmHg 88%
06:00 -1°C° 0 mm 1 m/S 763 mmHg 87%
07:00 -1°C° 0 mm 1 m/S 763 mmHg 85%
08:00 0°C° 0 mm 1 m/S 763 mmHg 79%
09:00 +1°C° 0 mm 1 m/S 764 mmHg 72%
10:00 +1°C° 0 mm 1 m/S 764 mmHg 66%
11:00 +2°C° 0.1 mm 1 m/S 763 mmHg 62%
12:00 +1°C° 0.1 mm 2 m/S 763 mmHg 59%
13:00 +2°C° 0.1 mm 2 m/S 763 mmHg 56%
14:00 +2°C° 0 mm 2 m/S 763 mmHg 56%
15:00 +2°C° 0 mm 1 m/S 762 mmHg 56%
16:00 +2°C° 0 mm 1 m/S 762 mmHg 57%
17:00 +1°C° 0 mm 1 m/S 762 mmHg 61%
18:00 0°C° 0 mm 1 m/S 762 mmHg 65%
19:00 -1°C° 0 mm 1 m/S 762 mmHg 70%
20:00 -1°C° 0 mm 1 m/S 762 mmHg 70%
21:00 -1°C° 0 mm 1 m/S 763 mmHg 70%
22:00 -1°C° 0 mm 1 m/S 763 mmHg 71%
23:00 -1°C° 0 mm 1 m/S 763 mmHg 71%

10 März, Mittwoch

Zeit Temperatur Niederschläge Wind Luftdruck Luftfeuchtigkeit
00:00 -1°C° 0 mm 1 m/S 763 mmHg 72%
01:00 -3°C° 0 mm 2 m/S 762 mmHg 73%
02:00 -3°C° 0 mm 2 m/S 762 mmHg 74%
03:00 -3°C° 0 mm 2 m/S 762 mmHg 75%
04:00 -3°C° 0 mm 2 m/S 762 mmHg 76%
05:00 -1°C° 0 mm 1 m/S 762 mmHg 75%
06:00 -1°C° 0 mm 1 m/S 762 mmHg 75%
07:00 -1°C° 0 mm 1 m/S 762 mmHg 75%
08:00 -2°C° 0 mm 2 m/S 763 mmHg 67%
09:00 +1°C° 0 mm 2 m/S 763 mmHg 59%
10:00 +2°C° 0 mm 2 m/S 763 mmHg 51%
11:00 +3°C° 0 mm 2 m/S 763 mmHg 47%
12:00 +3°C° 0 mm 2 m/S 763 mmHg 43%
13:00 +4°C° 0 mm 2 m/S 763 mmHg 39%
14:00 +4°C° 0 mm 2 m/S 763 mmHg 42%
15:00 +4°C° 0 mm 2 m/S 763 mmHg 46%
16:00 +3°C° 0 mm 2 m/S 763 mmHg 49%
17:00 +3°C° 0 mm 1 m/S 763 mmHg 56%
18:00 +1°C° 0 mm 1 m/S 763 mmHg 63%
19:00 0°C° 0 mm 1 m/S 763 mmHg 70%
20:00 0°C° 0 mm 1 m/S 763 mmHg 69%
21:00 0°C° 0 mm 1 m/S 763 mmHg 69%
22:00 -1°C° 0 mm 1 m/S 763 mmHg 69%
23:00 -3°C° 0 mm 2 m/S 762 mmHg 68%

11 März, Donnerstag

Zeit Temperatur Niederschläge Wind Luftdruck Luftfeuchtigkeit
00:00 -3°C° 0 mm 2 m/S 762 mmHg 68%
01:00 -4°C° 0 mm 3 m/S 762 mmHg 67%
02:00 -4°C° 0 mm 3 m/S 761 mmHg 65%
03:00 -3°C° 0 mm 4 m/S 760 mmHg 64%
04:00 -3°C° 0 mm 4 m/S 759 mmHg 62%
05:00 -4°C° 0 mm 5 m/S 758 mmHg 60%
06:00 -2°C° 0 mm 5 m/S 758 mmHg 58%
07:00 -3°C° 0 mm 6 m/S 757 mmHg 57%
08:00 -2°C° 0 mm 7 m/S 757 mmHg 57%
09:00 -1°C° 0 mm 7 m/S 756 mmHg 58%
10:00 0°C° 0 mm 8 m/S 755 mmHg 58%
11:00 0°C° 0.1 mm 9 m/S 754 mmHg 69%
12:00 -1°C° 0.1 mm 9 m/S 754 mmHg 80%
13:00 -1°C° 0.1 mm 9 m/S 753 mmHg 91%
14:00 -1°C° 0.7 mm 9 m/S 752 mmHg 92%
15:00 -1°C° 0.7 mm 9 m/S 751 mmHg 94%
16:00 -1°C° 0.7 mm 8 m/S 750 mmHg 96%
17:00 0°C° 0.5 mm 8 m/S 749 mmHg 95%
18:00 0°C° 0.5 mm 8 m/S 748 mmHg 95%
19:00 +1°C° 0.5 mm 8 m/S 747 mmHg 94%
20:00 +2°C° 1 mm 7 m/S 747 mmHg 93%
21:00 +3°C° 1 mm 7 m/S 747 mmHg 91%
22:00 +4°C° 1 mm 6 m/S 747 mmHg 90%
23:00 +3°C° 0 mm 6 m/S 747 mmHg 90%

12 März, Freitag

Zeit Temperatur Niederschläge Wind Luftdruck Luftfeuchtigkeit
00:00 +2°C° 0 mm 5 m/S 747 mmHg 89%
01:00 +1°C° 0 mm 5 m/S 748 mmHg 89%
02:00 +1°C° 0 mm 5 m/S 748 mmHg 89%
03:00 +1°C° 0 mm 5 m/S 748 mmHg 89%
04:00 +1°C° 0 mm 6 m/S 748 mmHg 90%
05:00 +1°C° 0 mm 6 m/S 748 mmHg 89%
06:00 +1°C° 0 mm 6 m/S 748 mmHg 89%
07:00 +2°C° 0 mm 6 m/S 748 mmHg 88%
08:00 +2°C° 0.1 mm 7 m/S 749 mmHg 85%
09:00 +3°C° 0.1 mm 7 m/S 749 mmHg 81%
10:00 +2°C° 0.1 mm 8 m/S 749 mmHg 78%
11:00 +4°C° 0.1 mm 8 m/S 750 mmHg 73%
12:00 +5°C° 0.1 mm 8 m/S 750 mmHg 69%
13:00 +5°C° 0.1 mm 9 m/S 751 mmHg 64%
14:00 +5°C° 0 mm 7 m/S 751 mmHg 66%
15:00 +4°C° 0 mm 6 m/S 751 mmHg 68%
16:00 +5°C° 0 mm 5 m/S 751 mmHg 70%
17:00 +3°C° 0 mm 5 m/S 751 mmHg 72%
18:00 +2°C° 0 mm 5 m/S 751 mmHg 74%
19:00 +2°C° 0 mm 5 m/S 751 mmHg 77%
20:00 +2°C° 0 mm 5 m/S 751 mmHg 78%
21:00 +2°C° 0 mm 5 m/S 751 mmHg 79%
22:00 +2°C° 0 mm 6 m/S 751 mmHg 80%
23:00 +2°C° 0 mm 6 m/S 751 mmHg 83%
Mehr zeigen

Wir brauchen deine Erlaubnis

Meteoprog und unser Service Anbieter werden persönliche Daten aufbewahren, so wie Cookies, Geräte Bezeichnung oder ähnliche Technologien von deinem Gerät und Prozess, so wie Persönliche Daten Inhalte und Werbungen, genauso wie social Media und den Verkehr zu analysieren.

  • Aufbewahrung und/oder Zugang zu deiner Geräte Informationen.

    Cookies, Geräte Bezeichnung oder andere Informationen, können aufbewahrt oder Zugang zu deinem Gerät erhalten, für den Grund, der oben angegeben wird.

  • Personalisierte Werbung und Inhalte, Messungen, Einblick in das Publikum und Produkt Entwicklung.

    Werbungen und Inhalte können personalisiert werden, basierend auf ein Profil. Mehr Daten können besser personalisierte Werbungen und Inhalte hinzufügen. Werbung und Inhalte können gezeigt und gemessen werden. Einblicke über das Publikum, welche die Werbung gesehen haben und den Inhalt, können abgeleitet werden. So wie Daten können genutzt werden, um es zu verbessern oder die Benutzer Erfahrung zu verbessern das System und die Software.

Wenn du “Ich stimme zu” klickst, erlaubst du uns, die Cookies zu benutzen die Geräte Bezeichnung, den Web oder ähnliche Technologien zu benutzen. Deine Settings, können in deinem Gerät bei deinem Browser geändert werden.

Für den bestimmten Zweck, berechtigten Interessen beruhen darauf, mehr als auf den Inhalt. Du kannst mehr darüber in unseren Privaten und Cookie Politik lesen.